Location: Moonridge Observatory
(39.2268°N, 77.7914°W)
Time: 00:50:44
(UTC-04:00)

CZ-2C R/B - Visible Passes

Search period start: 24 July 2017 00:00
Search period end: 03 August 2017 00:00
Orbit: 703 x 909 km, 98.2° (Epoch: 23 July)

Date Brightness Start Highest point End Pass type
(mag) Time Alt. Az. Time Alt. Az. Time Alt. Az.
24 Jul 4.7 01:25:43 25° WNW 01:25:43 25° WNW 01:28:37 10° NW visible
24 Jul 4.7 23:19:37 19° ENE 23:19:51 19° ENE 23:23:21 10° NNE visible
25 Jul 4.0 01:00:42 39° WNW 01:00:42 39° WNW 01:04:14 10° NNW visible
25 Jul 5.2 22:54:36 11° ENE 22:55:20 11° ENE 22:56:49 10° NE visible
26 Jul 3.5 00:35:40 56° NNW 00:35:40 56° NNW 00:39:33 10° NNW visible
27 Jul 3.6 00:10:39 49° NE 00:10:39 49° NE 00:14:38 10° N visible
27 Jul 5.3 01:51:44 13° WNW 01:51:44 13° WNW 01:52:53 10° NW visible
27 Jul 4.2 23:45:38 32° ENE 23:45:38 32° ENE 23:49:28 10° N visible
28 Jul 4.8 01:26:43 22° WNW 01:26:43 22° WNW 01:29:08 10° NW visible
28 Jul 4.7 23:20:37 19° ENE 23:20:37 19° ENE 23:23:56 10° NNE visible
29 Jul 4.3 01:01:41 34° NW 01:01:41 34° NW 01:04:47 10° NNW visible
29 Jul 5.2 22:55:36 11° ENE 22:55:59 11° ENE 22:57:26 10° NE visible
30 Jul 3.8 00:36:40 47° NNW 00:36:40 47° NNW 00:40:07 10° NNW visible
31 Jul 3.8 00:11:39 44° NNE 00:11:39 44° NNE 00:15:13 10° N visible
31 Jul 5.4 01:52:43 12° WNW 01:52:43 12° WNW 01:53:18 10° WNW visible
31 Jul 4.2 23:46:38 31° NE 23:46:38 31° NE 23:50:03 10° N visible
01 Aug 5.0 01:27:42 19° WNW 01:27:42 19° WNW 01:29:39 10° NW visible
01 Aug 4.7 23:21:37 19° ENE 23:21:37 19° ENE 23:24:32 10° NNE visible
02 Aug 4.5 01:02:41 29° NW 01:02:41 29° NW 01:05:20 10° NNW visible
02 Aug 5.2 22:56:35 11° ENE 22:56:36 11° ENE 22:58:04 10° NE visible
